Location: De Greiden
(52.9496°N, 5.9137°E)
Time: 23:06:19
(UTC+00:00)

ERS-2 - Pass Details

Date: 24 January 2021
Orbit: 492 x 497 km, 98.6° (Epoch: 01 March)

Event Time Altitude Azimuth Distance (km) Brightness Sun altitude
Exits shadow 19:24:57 22° 303° (WNW) 1,113 4.4 -29.5°
Maximum altitude 19:25:07 23° 299° (WNW) 1,110 4.4 -29.5°
Drops below altitude 10° 19:28:00 10° 246° (WSW) 1,690 5.5 -30.0°
Sets 19:30:21 0° 232° (SW) 2,567 6.3 -30.3°
